Find Starlink 6237

NORAD ID: 57055 Int'l Des: 2023-088 Owner: SPXS Country: US Constellation: starlink operational
LEOCIRCULAR

Live Position

Loading 3D Globe...

About Starlink 6237

Description loading...

Upcoming Passes

Passes for default location (London). Set your location on the main map for personalized predictions.

Altitude History

Loading altitude history...

Two-Line Element Set

1 57055U 23088H 26129.68847316 -.00000575 00000-0 -11402-4 0 9997
2 57055 43.0035 125.9754 0000482 351.6471 8.4373 15.27573055159665
Epoch: May 9, 2026 • Age: 10 hours

Current Status

Altitude 482.0 km
Velocity 7.63 km/s
Sub-Earth Point 18.12°N, 114.59°W
Launch Date Jun 22, 2023
Age 2.8 years
Type internet

Technical Details

Classification Payload
Mass 305.00 kg
Dry Mass 290.00 kg
Total Mass 305.00 kg
Length 0.20 m
Diameter 2.80 m
Span 9.00 m
Shape Box + pan
Manufacturer SPXS
Bus Type Starlink
Phase Status In Orbit
Owner/State SPXS/US

Most Searched